Location: Unspecified
(41.5516°N, 88.1098°W)
Time: 05:57:47
(UTC-05:00)

Resurs 1-4 Rocket - Visible Passes

Search period start: 30 August 2016 00:00
Search period end: 09 September 2016 00:00
Orbit: 799 x 815 km, 98.4° (Epoch: 29 August)

Date Brightness Start Highest point End Pass type
(mag) Time Alt. Az. Time Alt. Az. Time Alt. Az.
30 Aug 2.5 03:19:27 10° NNE 03:24:39 55° E 03:24:59 54° ESE visible
30 Aug 3.6 05:00:18 10° NNW 05:04:03 20° WNW 05:06:03 16° W visible
31 Aug 3.4 02:55:16 10° NNE 02:59:59 33° E 03:00:03 33° E visible
31 Aug 3.0 04:35:08 10° N 04:39:46 32° WNW 04:41:08 28° W visible
01 Sep 4.1 02:31:27 10° NE 02:35:07 20° E 02:35:07 20° E visible
01 Sep 2.3 04:10:15 10° N 04:15:22 52° WNW 04:16:11 47° WSW visible
02 Sep 4.7 02:08:50 10° ENE 02:10:11 11° E 02:10:11 11° E visible
02 Sep 1.9 03:45:36 10° NNE 03:50:54 86° WNW 03:51:15 78° SSW visible
02 Sep 4.0 05:27:59 10° NW 05:29:55 12° WNW 05:31:51 10° W visible
03 Sep 2.5 03:21:07 10° NNE 03:26:19 57° E 03:26:19 57° E visible
03 Sep 3.6 05:02:03 10° NNW 05:05:43 19° WNW 05:07:24 17° W visible
04 Sep 3.4 02:56:54 10° NNE 03:01:23 34° E 03:01:23 34° E visible
04 Sep 3.0 04:36:51 10° N 04:41:26 31° WNW 04:42:28 29° W visible
05 Sep 4.2 02:33:03 10° NE 02:36:27 20° E 02:36:27 20° E visible
05 Sep 2.3 04:11:57 10° N 04:17:03 50° WNW 04:17:32 48° W visible
06 Sep 4.7 02:10:12 10° ENE 02:11:31 12° E 02:11:31 12° E visible
06 Sep 1.9 03:47:16 10° NNE 03:52:35 83° WNW 03:52:36 83° W visible
06 Sep 4.0 05:29:52 10° NW 05:31:34 12° WNW 05:33:17 10° WNW visible
07 Sep 2.5 03:22:47 10° NNE 03:27:40 58° E 03:27:40 58° E visible
07 Sep 3.6 05:03:48 10° NNW 05:07:23 19° WNW 05:08:44 17° W visible
08 Sep 3.4 02:58:33 10° NNE 03:02:43 34° E 03:02:43 34° E visible
08 Sep 3.0 04:38:35 10° N 04:43:06 30° WNW 04:43:48 29° W visible
